NORTHEAST SUFFOLK  -  Air Quality Alert Air Quality Alert        NORTHERN NASSAU  -  Air Quality Alert Air Quality Alert        NORTHERN QUEENS  -  Air Quality Alert Air Quality Alert        NORTHWEST SUFFOLK  -  Air Quality Alert Air Quality Alert        SOUTHEAST SUFFOLK  -  Air Quality Alert Air Quality Alert        SOUTHERN NASSAU  -  Air Quality Alert Air Quality Alert        SOUTHERN QUEENS  -  Air Quality Alert Air Quality Alert        SOUTHWEST SUFFOLK  -  Air Quality Alert Air Quality Alert      

Active alerts

Northern Queens
  Details for Northern Queens Air Quality Alert
Southern Queens
  Details for Southern Queens Air Quality Alert
Northern Nassau
  Details for Northern Nassau Air Quality Alert
Southern Nassau
  Details for Southern Nassau Air Quality Alert
Northwest Suffolk
  Details for Northwest Suffolk Air Quality Alert
Southwest Suffolk
  Details for Southwest Suffolk Air Quality Alert
Northeast Suffolk
  Details for Northeast Suffolk Air Quality Alert
Southeast Suffolk
  Details for Southeast Suffolk Air Quality Alert


WXM80 ListenWXM80 Stop

You find our weather info also at:

UK Metoffice

WeatherCloud

Weather Underground

Northeastern Weather Network

AWEKAS

Citizen Weather Observer Program (CWOP)

HAMweather, WeatherForYou, PWS Weather


Weather Underground History page Text

Daily Summary for January 17, 2017 Units:  English    Metric   Both
« Previous Day
Next Day »
Daily Weekly Monthly Yearly Custom
  High: Low: Average:
Temperature: 40.8 °F 37.0 °F 38.6 °F
Dew Point: 38.7 °F 29.8 °F 34.3 °F
Humidity: 97 % 69 % 85 %
Wind Speed: 9.0 mph 0.0 mph 2 mph
Wind Gust: 14.0 mph - -
Wind:- - ESE
Pressure: 30.25 in 29.92 in -
Precipitation: 0.00 in    
Historical Graphs
 
 
Tabular Data for January 17, 2017
Time Temperature Dew Point Pressure Wind Wind Speed Wind Gust Humidity Rainfall Rate (Hourly)
00:02 38.6 °F 30.0 °F 30.25 in WSW 0.4 mph 3.5 mph 71 % 0.00 in
00:07 38.7 °F 29.8 °F 30.24 in WSW 1.2 mph 4.6 mph 70 % 0.00 in
00:12 38.8 °F 29.8 °F 30.24 in SSW 2.9 mph 3.5 mph 70 % 0.00 in
00:17 38.8 °F 29.8 °F 30.24 in SSW 2.0 mph 3.5 mph 70 % 0.00 in
00:22 38.9 °F 29.9 °F 30.24 in SW 1.0 mph 3.5 mph 70 % 0.00 in
00:27 38.9 °F 29.9 °F 30.23 in SW 0.1 mph 2.3 mph 70 % 0.00 in
00:32 38.9 °F 29.9 °F 30.23 in SSW 2.5 mph 4.0 mph 70 % 0.00 in
00:37 39.0 °F 30.0 °F 30.23 in SW 0.2 mph 3.5 mph 70 % 0.00 in
00:42 39.1 °F 29.8 °F 30.23 in WSW 0.8 mph 3.5 mph 69 % 0.00 in
00:47 39.1 °F 30.1 °F 30.23 in SW 2.0 mph 3.5 mph 70 % 0.00 in
00:52 39.2 °F 30.2 °F 30.23 in SW 3.3 mph 4.6 mph 70 % 0.00 in
00:57 39.3 °F 30.3 °F 30.23 in West 2.3 mph 9.0 mph 70 % 0.00 in
01:03 39.3 °F 30.0 °F 30.23 in SSW 3.9 mph 5.0 mph 69 % 0.00 in
01:08 39.4 °F 30.4 °F 30.23 in SW 5.3 mph 6.0 mph 70 % 0.00 in
01:13 39.5 °F 30.5 °F 30.23 in SW 3.0 mph 7.0 mph 70 % 0.00 in
01:18 39.5 °F 30.5 °F 30.23 in SW 3.6 mph 3.6 mph 70 % 0.00 in
01:23 39.5 °F 30.5 °F 30.23 in WSW 2.8 mph 6.9 mph 70 % 0.00 in
01:28 39.5 °F 30.5 °F 30.23 in WSW 2.7 mph 5.0 mph 70 % 0.00 in
01:33 39.5 °F 30.5 °F 30.23 in SW 4.9 mph 8.1 mph 70 % 0.00 in
01:38 39.5 °F 30.5 °F 30.23 in WSW 3.4 mph 6.9 mph 70 % 0.00 in
01:43 39.6 °F 30.6 °F 30.23 in SW 3.2 mph 5.8 mph 70 % 0.00 in
01:48 39.5 °F 30.5 °F 30.23 in SSW 5.2 mph 9.2 mph 70 % 0.00 in
01:53 39.5 °F 30.5 °F 30.23 in WSW 4.1 mph 6.0 mph 70 % 0.00 in
01:58 39.5 °F 30.5 °F 30.23 in SW 2.2 mph 3.5 mph 70 % 0.00 in
02:03 39.4 °F 30.4 °F 30.23 in SSW 3.0 mph 5.0 mph 70 % 0.00 in
02:08 39.4 °F 30.4 °F 30.23 in WSW 4.4 mph 6.9 mph 70 % 0.00 in
02:13 39.3 °F 30.3 °F 30.23 in SW 2.6 mph 4.6 mph 70 % 0.00 in
02:18 39.3 °F 30.3 °F 30.23 in SW 1.7 mph 3.5 mph 70 % 0.00 in
02:23 39.2 °F 30.2 °F 30.22 in SW 1.3 mph 3.5 mph 70 % 0.00 in
02:29 39.1 °F 30.1 °F 30.22 in WSW 1.5 mph 4.6 mph 70 % 0.00 in
02:34 39.0 °F 30.0 °F 30.22 in WSW 2.0 mph 3.5 mph 70 % 0.00 in
02:39 39.0 °F 30.4 °F 30.22 in WSW 0.3 mph 1.0 mph 71 % 0.00 in
02:44 38.9 °F 29.9 °F 30.21 in Calm   4.0 mph 70 % 0.00 in
02:49 38.8 °F 30.2 °F 30.21 in West 2.0 mph 4.0 mph 71 % 0.00 in
02:54 38.8 °F 30.2 °F 30.21 in WSW 1.0 mph 6.0 mph 71 % 0.00 in
02:59 38.7 °F 30.1 °F 30.20 in SW 0.1 mph   71 % 0.00 in
03:04 38.6 °F 30.0 °F 30.20 in Calm   3.0 mph 71 % 0.00 in
03:09 38.6 °F 30.0 °F 30.20 in Calm   1.0 mph 71 % 0.00 in
03:14 38.5 °F 29.9 °F 30.20 in Calm   2.0 mph 71 % 0.00 in
03:19 38.4 °F 30.2 °F 30.20 in Calm   1.0 mph 72 % 0.00 in
03:24 38.3 °F 30.1 °F 30.20 in SW 1.0 mph 3.0 mph 72 % 0.00 in
03:29 38.2 °F 30.0 °F 30.20 in SW 1.0 mph 3.0 mph 72 % 0.00 in
03:34 38.1 °F 29.9 °F 30.20 in Calm   4.0 mph 72 % 0.00 in
03:39 38.0 °F 30.1 °F 30.20 in Calm   3.0 mph 73 % 0.00 in
03:44 37.9 °F 30.0 °F 30.20 in Calm   4.0 mph 73 % 0.00 in
03:49 37.8 °F 29.9 °F 30.20 in SW 0.3 mph 2.3 mph 73 % 0.00 in
03:54 37.8 °F 29.9 °F 30.20 in SW 0.7 mph 2.3 mph 73 % 0.00 in
03:59 37.8 °F 29.9 °F 30.20 in WSW 1.6 mph 3.5 mph 73 % 0.00 in
04:04 37.7 °F 30.2 °F 30.20 in Calm     74 % 0.00 in
04:09 37.7 °F 30.2 °F 30.20 in WSW 0.4 mph 2.0 mph 74 % 0.00 in
04:14 37.8 °F 30.3 °F 30.20 in WSW 1.5 mph 3.5 mph 74 % 0.00 in
04:19 37.9 °F 30.4 °F 30.20 in WNW 1.2 mph 3.5 mph 74 % 0.00 in
04:24 37.9 °F 30.4 °F 30.20 in Calm   1.2 mph 74 % 0.00 in
04:29 38.0 °F 30.4 °F 30.19 in West 2.1 mph 3.5 mph 74 % 0.00 in
04:35 38.1 °F 30.5 °F 30.19 in West 1.0 mph 3.5 mph 74 % 0.00 in
04:40 38.2 °F 30.6 °F 30.20 in West 1.5 mph 3.5 mph 74 % 0.00 in
04:45 38.2 °F 30.6 °F 30.20 in West 0.2 mph 3.5 mph 74 % 0.00 in
04:50 38.3 °F 30.7 °F 30.20 in Calm     74 % 0.00 in
04:55 38.4 °F 30.8 °F 30.20 in Calm   1.2 mph 74 % 0.00 in
05:00 38.5 °F 30.9 °F 30.19 in West 0.2 mph 2.3 mph 74 % 0.00 in
05:05 38.6 °F 31.0 °F 30.19 in Calm   1.2 mph 74 % 0.00 in
05:10 38.6 °F 31.0 °F 30.19 in Calm     74 % 0.00 in
05:15 38.7 °F 31.1 °F 30.19 in Calm     74 % 0.00 in
05:20 38.7 °F 31.1 °F 30.19 in Calm     74 % 0.00 in
05:25 38.7 °F 31.1 °F 30.18 in Calm     74 % 0.00 in
05:30 38.7 °F 31.1 °F 30.19 in Calm     74 % 0.00 in
05:35 38.8 °F 31.2 °F 30.18 in Calm     74 % 0.00 in
05:40 38.8 °F 31.2 °F 30.18 in Calm     74 % 0.00 in
05:46 38.8 °F 31.2 °F 30.19 in Calm     74 % 0.00 in
05:51 38.7 °F 31.5 °F 30.20 in Calm     75 % 0.00 in
05:56 38.6 °F 31.0 °F 30.20 in Calm     74 % 0.00 in
06:01 38.6 °F 31.4 °F 30.20 in Calm     75 % 0.00 in
06:06 38.5 °F 31.3 °F 30.20 in Calm     75 % 0.00 in
06:11 38.4 °F 31.2 °F 30.19 in Calm     75 % 0.00 in
06:16 38.3 °F 31.4 °F 30.19 in Calm     76 % 0.00 in
06:21 38.2 °F 31.3 °F 30.20 in Calm     76 % 0.00 in
06:26 38.0 °F 31.1 °F 30.20 in Calm     76 % 0.00 in
06:31 38.0 °F 31.1 °F 30.20 in Calm     76 % 0.00 in
06:36 37.8 °F 31.2 °F 30.19 in Calm     77 % 0.00 in
06:41 37.7 °F 31.1 °F 30.19 in Calm     77 % 0.00 in
06:46 37.7 °F 31.1 °F 30.20 in Calm     77 % 0.00 in
06:51 37.5 °F 30.9 °F 30.20 in Calm     77 % 0.00 in
06:56 37.5 °F 30.9 °F 30.20 in Calm     77 % 0.00 in
07:01 37.5 °F 31.3 °F 30.20 in Calm     78 % 0.00 in
07:06 37.4 °F 31.2 °F 30.20 in Calm     78 % 0.00 in
07:11 37.4 °F 31.5 °F 30.20 in Calm     79 % 0.00 in
07:17 37.4 °F 31.5 °F 30.20 in Calm     79 % 0.00 in
07:22 37.4 °F 31.5 °F 30.20 in Calm     79 % 0.00 in
07:27 37.3 °F 31.4 °F 30.19 in Calm     79 % 0.00 in
07:32 37.3 °F 31.4 °F 30.19 in Calm     79 % 0.00 in
07:37 37.1 °F 31.5 °F 30.19 in Calm     80 % 0.00 in
07:42 37.1 °F 31.5 °F 30.19 in Calm     80 % 0.00 in
07:47 37.0 °F 31.7 °F 30.20 in West 0.8 mph 2.0 mph 81 % 0.00 in
07:52 37.0 °F 31.7 °F 30.20 in West 0.3 mph 1.2 mph 81 % 0.00 in
07:57 37.0 °F 31.7 °F 30.20 in Calm     81 % 0.00 in
08:02 37.0 °F 31.7 °F 30.20 in Calm     81 % 0.00 in
08:07 37.1 °F 31.8 °F 30.20 in Calm     81 % 0.00 in
08:12 37.2 °F 31.9 °F 30.21 in Calm     81 % 0.00 in
08:17 37.3 °F 32.3 °F 30.21 in Calm     82 % 0.00 in
08:22 37.4 °F 32.4 °F 30.21 in Calm   1.0 mph 82 % 0.00 in
08:27 37.5 °F 32.5 °F 30.21 in Calm     82 % 0.00 in
08:32 37.7 °F 32.4 °F 30.20 in Calm     81 % 0.00 in
08:37 37.9 °F 32.6 °F 30.20 in Calm     81 % 0.00 in
08:43 38.2 °F 32.9 °F 30.20 in Calm     81 % 0.00 in
08:47 38.5 °F 32.6 °F 30.20 in Calm     79 % 0.00 in
08:53 38.7 °F 32.7 °F 30.20 in Calm     79 % 0.00 in
08:58 38.9 °F 32.3 °F 30.20 in Calm     77 % 0.00 in
09:03 39.1 °F 32.2 °F 30.20 in Calm     76 % 0.00 in
09:08 39.3 °F 32.4 °F 30.20 in Calm     76 % 0.00 in
09:13 39.6 °F 32.3 °F 30.20 in West 0.5 mph 1.2 mph 75 % 0.00 in
09:18 39.8 °F 32.5 °F 30.20 in Calm     75 % 0.00 in
09:23 40.0 °F 32.7 °F 30.20 in West 0.3 mph 2.3 mph 75 % 0.00 in
09:28 40.2 °F 32.6 °F 30.21 in Calm     74 % 0.00 in
09:33 40.2 °F 32.6 °F 30.21 in Calm     74 % 0.00 in
09:38 40.3 °F 32.3 °F 30.20 in Calm     73 % 0.00 in
09:43 40.4 °F 32.8 °F 30.21 in Calm     74 % 0.00 in
09:48 40.4 °F 32.4 °F 30.21 in Calm     73 % 0.00 in
09:53 40.5 °F 32.9 °F 30.21 in Calm     74 % 0.00 in
09:58 40.5 °F 32.9 °F 30.21 in Calm     74 % 0.00 in
10:03 40.5 °F 33.2 °F 30.21 in Calm     75 % 0.00 in
10:08 40.6 °F 33.0 °F 30.21 in NNE 0.2 mph 1.2 mph 74 % 0.00 in
10:14 40.7 °F 33.1 °F 30.21 in Calm   1.2 mph 74 % 0.00 in
10:19 40.8 °F 32.8 °F 30.21 in Calm     73 % 0.00 in
10:24 40.8 °F 33.2 °F 30.20 in NNE 0.2 mph 2.3 mph 74 % 0.00 in
10:29 40.8 °F 33.2 °F 30.20 in NNE 1.0 mph 3.0 mph 74 % 0.00 in
10:34 40.8 °F 33.8 °F 30.20 in NNE 2.0 mph 3.0 mph 76 % 0.00 in
10:39 40.7 °F 34.0 °F 30.20 in NNE 2.0 mph 4.0 mph 77 % 0.00 in
10:44 40.7 °F 34.0 °F 30.20 in NNE 2.0 mph 4.0 mph 77 % 0.00 in
10:49 40.6 °F 34.3 °F 30.19 in NNE 0.3 mph 1.2 mph 78 % 0.00 in
10:54 40.6 °F 34.9 °F 30.19 in Calm   2.0 mph 80 % 0.00 in
10:59 40.6 °F 35.5 °F 30.19 in Calm     82 % 0.00 in
11:04 40.6 °F 35.5 °F 30.19 in Calm   1.2 mph 82 % 0.00 in
11:09 40.6 °F 36.1 °F 30.19 in Calm     84 % 0.00 in
11:14 40.5 °F 36.0 °F 30.19 in NNE 0.6 mph 2.3 mph 84 % 0.00 in
11:19 40.4 °F 35.9 °F 30.19 in Calm     84 % 0.00 in
11:24 40.3 °F 35.8 °F 30.19 in Calm     84 % 0.00 in
11:29 40.3 °F 35.8 °F 30.18 in Calm   1.0 mph 84 % 0.00 in
11:34 40.3 °F 36.1 °F 30.18 in Calm     85 % 0.01 in
11:39 40.2 °F 36.3 °F 30.17 in NNE 0.2 mph 1.2 mph 86 % 0.01 in
11:44 40.0 °F 36.2 °F 30.17 in Calm   2.3 mph 86 % 0.01 in
11:50 40.0 °F 36.4 °F 30.17 in NNE 0.2 mph 2.3 mph 87 % 0.01 in
11:55 39.8 °F 36.2 °F 30.17 in NNE 0.8 mph 2.3 mph 87 % 0.01 in
12:00 39.8 °F 36.5 °F 30.16 in NNE 1.4 mph 3.5 mph 88 % 0.01 in
12:05 39.7 °F 36.4 °F 30.16 in NNE 1.2 mph 2.3 mph 88 % 0.01 in
12:10 39.6 °F 36.6 °F 30.15 in NNE 0.7 mph 1.2 mph 89 % 0.01 in
12:15 39.5 °F 36.5 °F 30.15 in ENE 1.0 mph 2.3 mph 89 % 0.01 in
12:20 39.5 °F 36.5 °F 30.15 in ENE 0.7 mph 2.3 mph 89 % 0.01 in
12:25 39.4 °F 36.4 °F 30.15 in ENE 0.3 mph 2.3 mph 89 % 0.01 in
12:30 39.4 °F 36.7 °F 30.15 in ENE 1.5 mph 2.3 mph 90 % 0.01 in
12:35 39.3 °F 36.6 °F 30.15 in ENE 1.7 mph 3.5 mph 90 % 0.00 in
12:40 39.2 °F 36.5 °F 30.15 in ENE 2.0 mph 3.5 mph 90 % 0.00 in
12:45 39.1 °F 36.4 °F 30.14 in ENE 0.4 mph 2.3 mph 90 % 0.00 in
12:50 39.1 °F 36.4 °F 30.14 in ENE 2.4 mph 3.5 mph 90 % 0.00 in
12:55 39.1 °F 36.4 °F 30.13 in ENE 2.2 mph 3.5 mph 90 % 0.00 in
13:00 39.0 °F 36.6 °F 30.13 in East 0.4 mph 2.3 mph 91 % 0.01 in
13:05 39.0 °F 36.6 °F 30.13 in East 2.5 mph 3.5 mph 91 % 0.01 in
13:10 38.8 °F 36.4 °F 30.13 in East 0.9 mph 3.0 mph 91 % 0.01 in
13:15 38.7 °F 36.3 °F 30.13 in East 1.6 mph 3.0 mph 91 % 0.01 in
13:21 38.6 °F 36.2 °F 30.13 in East 2.0 mph 3.5 mph 91 % 0.01 in
13:26 38.5 °F 36.1 °F 30.12 in East 1.7 mph 3.5 mph 91 % 0.01 in
13:31 38.5 °F 36.1 °F 30.12 in East 1.0 mph 2.3 mph 91 % 0.02 in
13:36 38.5 °F 36.1 °F 30.11 in Calm     91 % 0.02 in
13:41 38.4 °F 36.0 °F 30.11 in East 1.1 mph 2.3 mph 91 % 0.02 in
13:46 38.4 °F 36.0 °F 30.11 in East 1.9 mph 3.5 mph 91 % 0.02 in
13:51 38.3 °F 35.9 °F 30.11 in East 0.9 mph 2.3 mph 91 % 0.02 in
13:56 38.3 °F 35.9 °F 30.10 in East 1.4 mph 2.3 mph 91 % 0.02 in
14:01 38.3 °F 35.9 °F 30.11 in East 1.4 mph 2.3 mph 91 % 0.01 in
14:06 38.3 °F 35.9 °F 30.11 in East 1.1 mph 2.3 mph 91 % 0.01 in
14:11 38.2 °F 35.8 °F 30.11 in East 0.7 mph 1.2 mph 91 % 0.01 in
14:16 38.2 °F 35.8 °F 30.11 in East 1.4 mph 2.3 mph 91 % 0.01 in
14:22 38.1 °F 36.0 °F 30.10 in East 2.1 mph 4.6 mph 92 % 0.02 in
14:27 38.1 °F 36.0 °F 30.11 in East 0.2 mph 2.3 mph 92 % 0.02 in
14:32 38.0 °F 35.9 °F 30.11 in East 0.3 mph 2.3 mph 92 % 0.01 in
14:37 38.0 °F 35.9 °F 30.10 in East 2.1 mph 3.5 mph 92 % 0.01 in
14:42 38.0 °F 35.9 °F 30.11 in East 1.6 mph 3.5 mph 92 % 0.01 in
14:47 38.0 °F 35.9 °F 30.10 in East 2.7 mph 4.6 mph 92 % 0.01 in
14:52 37.9 °F 36.1 °F 30.10 in East 2.7 mph 4.6 mph 93 % 0.01 in
14:57 37.9 °F 36.1 °F 30.10 in East 2.2 mph 3.5 mph 93 % 0.01 in
15:02 37.8 °F 35.7 °F 30.10 in East 0.5 mph 2.3 mph 92 % 0.01 in
15:07 37.8 °F 36.0 °F 30.11 in East 1.3 mph 3.5 mph 93 % 0.01 in
15:12 37.8 °F 36.0 °F 30.10 in East 0.3 mph 2.3 mph 93 % 0.01 in
15:17 37.8 °F 36.0 °F 30.11 in East 1.0 mph 2.0 mph 93 % 0.01 in
15:22 37.8 °F 36.0 °F 30.10 in East 1.4 mph 2.3 mph 93 % 0.00 in
15:27 37.8 °F 36.0 °F 30.09 in East 2.2 mph 4.6 mph 93 % 0.00 in
15:32 37.8 °F 36.0 °F 30.09 in East 2.2 mph 3.5 mph 93 % 0.00 in
15:37 37.8 °F 36.0 °F 30.09 in East 3.7 mph 6.0 mph 93 % 0.00 in
15:43 37.9 °F 36.3 °F 30.09 in East 4.9 mph 5.8 mph 94 % 0.00 in
15:48 37.9 °F 36.3 °F 30.08 in East 4.8 mph 5.8 mph 94 % 0.00 in
15:53 37.9 °F 36.3 °F 30.08 in East 4.7 mph 7.0 mph 94 % 0.00 in
15:58 38.0 °F 36.4 °F 30.08 in East 3.9 mph 5.8 mph 94 % 0.00 in
16:03 38.0 °F 36.4 °F 30.07 in East 4.6 mph 6.9 mph 94 % 0.00 in
16:08 38.0 °F 36.4 °F 30.08 in East 3.6 mph 4.6 mph 94 % 0.00 in
16:13 38.0 °F 36.4 °F 30.08 in East 3.5 mph 4.6 mph 94 % 0.00 in
16:18 38.0 °F 36.4 °F 30.08 in East 2.2 mph 3.5 mph 94 % 0.00 in
16:23 38.0 °F 36.4 °F 30.08 in East 4.1 mph 6.0 mph 94 % 0.00 in
16:28 38.0 °F 36.4 °F 30.08 in East 2.1 mph 5.0 mph 94 % 0.00 in
16:33 38.0 °F 36.7 °F 30.07 in East 1.7 mph 3.5 mph 95 % 0.00 in
16:38 38.0 °F 36.7 °F 30.08 in East 0.7 mph 1.2 mph 95 % 0.00 in
16:44 38.0 °F 36.7 °F 30.07 in Calm     95 % 0.00 in
16:49 38.0 °F 36.7 °F 30.08 in Calm     95 % 0.00 in
16:54 38.0 °F 36.7 °F 30.08 in Calm   1.2 mph 95 % 0.00 in
16:59 38.0 °F 36.7 °F 30.08 in East 0.6 mph 1.2 mph 95 % 0.00 in
17:04 38.0 °F 36.7 °F 30.08 in East 0.2 mph 1.2 mph 95 % 0.00 in
17:09 38.0 °F 36.7 °F 30.08 in Calm     95 % 0.00 in
17:14 38.0 °F 36.7 °F 30.08 in East 0.3 mph 1.2 mph 95 % 0.00 in
17:19 38.0 °F 36.7 °F 30.08 in East 0.1 mph 1.2 mph 95 % 0.00 in
17:24 38.0 °F 36.7 °F 30.08 in East 0.1 mph 1.0 mph 95 % 0.00 in
17:29 38.0 °F 36.7 °F 30.07 in East 0.3 mph 2.3 mph 95 % 0.00 in
17:34 38.0 °F 36.7 °F 30.08 in East 0.4 mph 1.2 mph 95 % 0.00 in
17:39 38.0 °F 36.7 °F 30.08 in Calm     95 % 0.00 in
17:44 38.0 °F 36.7 °F 30.09 in East 0.2 mph 1.2 mph 95 % 0.00 in
17:50 38.0 °F 36.7 °F 30.08 in East 1.3 mph 2.3 mph 95 % 0.00 in
17:55 38.0 °F 36.7 °F 30.08 in East 1.8 mph 3.5 mph 95 % 0.00 in
18:00 38.0 °F 36.7 °F 30.07 in East 1.5 mph 3.5 mph 95 % 0.00 in
18:05 38.0 °F 36.7 °F 30.08 in East 1.2 mph 2.3 mph 95 % 0.00 in
18:10 38.0 °F 36.7 °F 30.07 in East 2.4 mph 3.5 mph 95 % 0.00 in
18:15 38.1 °F 36.8 °F 30.07 in East 2.2 mph 3.5 mph 95 % 0.00 in
18:20 38.1 °F 36.8 °F 30.07 in East 2.1 mph 3.5 mph 95 % 0.00 in
18:25 38.2 °F 36.9 °F 30.07 in East 1.5 mph 2.3 mph 95 % 0.00 in
18:30 38.3 °F 37.0 °F 30.07 in ENE 2.3 mph 6.9 mph 95 % 0.00 in
18:35 38.3 °F 37.0 °F 30.06 in East 3.7 mph 6.0 mph 95 % 0.00 in
18:40 38.4 °F 37.4 °F 30.05 in East 5.3 mph 7.0 mph 96 % 0.00 in
18:45 38.4 °F 37.4 °F 30.05 in East 3.7 mph 5.8 mph 96 % 0.00 in
18:50 38.4 °F 37.4 °F 30.05 in East 3.1 mph 6.0 mph 96 % 0.00 in
18:56 38.3 °F 37.3 °F 30.05 in East 4.9 mph 5.8 mph 96 % 0.00 in
19:01 38.3 °F 37.3 °F 30.04 in East 4.9 mph 7.0 mph 96 % 0.00 in
19:06 38.2 °F 36.9 °F 30.04 in East 5.1 mph 6.9 mph 95 % 0.00 in
19:11 38.2 °F 37.2 °F 30.04 in East 5.1 mph 8.1 mph 96 % 0.00 in
19:16 38.1 °F 37.1 °F 30.04 in East 5.8 mph 6.9 mph 96 % 0.00 in
19:21 38.1 °F 37.1 °F 30.03 in East 6.2 mph 9.2 mph 96 % 0.00 in
19:26 38.1 °F 37.1 °F 30.03 in ENE 3.8 mph 8.1 mph 96 % 0.00 in
19:31 38.1 °F 37.1 °F 30.03 in East 3.4 mph 5.0 mph 96 % 0.01 in
19:36 38.1 °F 37.1 °F 30.03 in ENE 4.6 mph 6.9 mph 96 % 0.01 in
19:41 38.1 °F 37.1 °F 30.04 in ENE 6.4 mph 9.2 mph 96 % 0.02 in
19:46 38.1 °F 37.1 °F 30.03 in ENE 3.9 mph 7.0 mph 96 % 0.02 in
19:51 38.1 °F 37.1 °F 30.03 in ENE 4.4 mph 6.9 mph 96 % 0.03 in
19:56 38.1 °F 37.1 °F 30.02 in ENE 5.3 mph 7.0 mph 96 % 0.04 in
20:02 38.1 °F 37.1 °F 30.02 in East 5.2 mph 6.0 mph 96 % 0.04 in
20:07 38.1 °F 37.1 °F 30.01 in East 7.8 mph 11.5 mph 96 % 0.05 in
20:12 38.0 °F 37.0 °F 30.01 in East 7.1 mph 9.2 mph 96 % 0.05 in
20:17 38.0 °F 37.0 °F 30.02 in East 6.9 mph 9.0 mph 96 % 0.05 in
20:22 38.0 °F 37.0 °F 30.02 in East 4.4 mph 6.9 mph 96 % 0.05 in
20:27 38.0 °F 37.0 °F 30.03 in ENE 2.4 mph 4.0 mph 96 % 0.05 in
20:32 38.1 °F 37.1 °F 30.02 in East 4.6 mph 6.0 mph 96 % 0.05 in
20:37 38.1 °F 37.1 °F 30.01 in East 5.9 mph 7.0 mph 96 % 0.05 in
20:42 38.1 °F 37.1 °F 30.01 in East 5.2 mph 8.1 mph 96 % 0.05 in
20:47 38.1 °F 37.1 °F 30.01 in East 5.7 mph 8.1 mph 96 % 0.04 in
20:52 38.1 °F 37.1 °F 30.01 in ENE 4.5 mph 6.0 mph 96 % 0.04 in
20:57 38.1 °F 37.1 °F 30.01 in ENE 4.4 mph 6.9 mph 96 % 0.03 in
21:02 38.1 °F 37.1 °F 30.00 in ENE 4.1 mph 6.9 mph 96 % 0.03 in
21:07 38.2 °F 37.2 °F 30.00 in ENE 4.3 mph 8.1 mph 96 % 0.02 in
21:12 38.2 °F 37.2 °F 30.00 in East 5.1 mph 9.2 mph 96 % 0.03 in
21:17 38.3 °F 37.3 °F 30.00 in East 4.9 mph 6.9 mph 96 % 0.04 in
21:23 38.3 °F 37.5 °F 29.99 in ENE 4.4 mph 6.9 mph 97 % 0.04 in
21:28 38.3 °F 37.5 °F 30.00 in ENE 5.9 mph 8.1 mph 97 % 0.05 in
21:33 38.4 °F 37.6 °F 30.00 in ENE 5.4 mph 8.1 mph 97 % 0.05 in
21:38 38.4 °F 37.6 °F 30.00 in ENE 4.7 mph 7.0 mph 97 % 0.05 in
21:43 38.5 °F 37.7 °F 30.01 in ENE 4.4 mph 7.0 mph 97 % 0.04 in
21:48 38.6 °F 37.8 °F 30.00 in ENE 5.7 mph 8.1 mph 97 % 0.05 in
21:53 38.6 °F 37.8 °F 29.99 in ENE 4.0 mph 8.1 mph 97 % 0.05 in
21:58 38.6 °F 37.8 °F 29.99 in ENE 4.1 mph 9.2 mph 97 % 0.05 in
22:03 38.7 °F 37.9 °F 29.99 in East 5.4 mph 8.1 mph 97 % 0.05 in
22:08 38.7 °F 37.9 °F 29.99 in ENE 4.4 mph 9.2 mph 97 % 0.05 in
22:13 38.8 °F 38.0 °F 29.99 in ENE 5.6 mph 9.2 mph 97 % 0.04 in
22:18 38.8 °F 38.0 °F 29.99 in ENE 5.7 mph 9.2 mph 97 % 0.03 in
22:23 38.9 °F 38.1 °F 29.99 in ENE 6.4 mph 8.1 mph 97 % 0.02 in
22:28 39.0 °F 38.2 °F 29.98 in ENE 7.5 mph 9.2 mph 97 % 0.02 in
22:33 39.0 °F 38.2 °F 29.98 in East 6.2 mph 9.2 mph 97 % 0.01 in
22:38 39.1 °F 38.3 °F 29.98 in ENE 5.7 mph 8.1 mph 97 % 0.01 in
22:43 39.1 °F 38.3 °F 29.97 in ENE 4.2 mph 6.9 mph 97 % 0.01 in
22:48 39.1 °F 38.3 °F 29.96 in East 6.9 mph 10.0 mph 97 % 0.00 in
22:53 39.2 °F 38.4 °F 29.95 in East 7.3 mph 9.2 mph 97 % 0.00 in
22:58 39.2 °F 38.4 °F 29.95 in ENE 6.5 mph 9.0 mph 97 % 0.00 in
23:03 39.2 °F 38.4 °F 29.94 in ENE 6.3 mph 8.1 mph 97 % 0.00 in
23:09 39.2 °F 38.4 °F 29.94 in East 7.2 mph 9.2 mph 97 % 0.00 in
23:14 39.2 °F 38.4 °F 29.94 in East 5.7 mph 8.0 mph 97 % 0.00 in
23:19 39.3 °F 38.5 °F 29.94 in NE 6.0 mph 9.2 mph 97 % 0.00 in
23:24 39.3 °F 38.5 °F 29.94 in ENE 5.6 mph 6.9 mph 97 % 0.00 in
23:29 39.3 °F 38.6 °F 29.95 in ENE 5.0 mph 9.0 mph 97 % 0.00 in
23:34 39.4 °F 38.6 °F 29.95 in ENE 6.0 mph 10.0 mph 97 % 0.00 in
23:39 39.5 °F 38.7 °F 29.95 in ENE 7.0 mph 10.0 mph 97 % 0.00 in
23:44 39.4 °F 38.6 °F 29.94 in ENE 8.0 mph 12.0 mph 97 % 0.00 in
23:49 39.0 °F 38.2 °F 29.94 in ENE 9.0 mph 14.0 mph 97 % 0.00 in
23:54 38.7 °F 37.9 °F 29.93 in ENE 9.0 mph 13.0 mph 97 % 0.00 in
23:59 38.6 °F 37.8 °F 29.92 in ENE 7.6 mph 12.0 mph 97 % 0.00 in
Crab Meadow Weather
Compliments of Weather Underground - 3 mb

Script developed by  Jim McMurry - jmcmurry@mwt.net Adapted for the template by  Wim van der Kuil - Leuven-Template.eu

Astronomy: A year on Venus is 225 days.